TimeCST,TemperatureF,Dew PointF,Humidity,Sea Level PressureIn,VisibilityMPH,Wind Direction,Wind SpeedMPH,Gust SpeedMPH,PrecipitationIn,Events,Conditions,WindDirDegrees,DateUTC
12:15 AM,33.8,32.0,93,30.27,10.0,Calm,Calm,-,N/A,,Clear,0,2012-11-15 06:15:00
12:35 AM,33.8,32.0,93,30.27,10.0,Calm,Calm,-,N/A,,Clear,0,2012-11-15 06:35:00
12:55 AM,33.8,32.0,93,30.27,10.0,Calm,Calm,-,N/A,,Clear,0,2012-11-15 06:55:00
1:15 AM,32.0,30.2,93,30.27,7.0,Calm,Calm,-,N/A,,Clear,0,2012-11-15 07:15:00
1:35 AM,32.0,30.2,93,30.27,10.0,Calm,Calm,-,N/A,,Scattered Clouds,0,2012-11-15 07:35:00
1:55 AM,32.0,30.2,93,30.27,10.0,Calm,Calm,-,N/A,,Mostly Cloudy,0,2012-11-15 07:55:00
2:15 AM,32.0,32.0,100,30.27,10.0,Calm,Calm,-,N/A,,Mostly Cloudy,0,2012-11-15 08:15:00
2:55 AM,32.0,30.2,93,30.27,10.0,Calm,Calm,-,N/A,,Clear,0,2012-11-15 08:55:00
3:15 AM,32.0,30.2,93,30.28,10.0,Calm,Calm,-,N/A,,Clear,0,2012-11-15 09:15:00
3:35 AM,32.0,30.2,93,30.28,10.0,Calm,Calm,-,N/A,,Clear,0,2012-11-15 09:35:00
3:55 AM,32.0,30.2,93,30.28,10.0,Calm,Calm,-,N/A,,Clear,0,2012-11-15 09:55:00
4:15 AM,32.0,28.4,87,30.30,10.0,Calm,Calm,-,N/A,,Clear,0,2012-11-15 10:15:00
4:35 AM,32.0,30.2,93,30.29,7.0,Calm,Calm,-,N/A,,Clear,0,2012-11-15 10:35:00
4:55 AM,32.0,28.4,87,30.30,10.0,Calm,Calm,-,N/A,,Clear,0,2012-11-15 10:55:00
5:15 AM,30.2,28.4,93,30.30,10.0,Calm,Calm,-,N/A,,Clear,0,2012-11-15 11:15:00
5:35 AM,30.2,28.4,93,30.30,10.0,Calm,Calm,-,N/A,,Clear,0,2012-11-15 11:35:00
5:55 AM,30.2,28.4,93,30.30,10.0,Calm,Calm,-,N/A,,Clear,0,2012-11-15 11:55:00
6:15 AM,30.2,28.4,93,30.30,7.0,Calm,Calm,-,N/A,,Clear,0,2012-11-15 12:15:00
6:35 AM,30.2,28.4,93,30.31,10.0,Calm,Calm,-,N/A,,Clear,0,2012-11-15 12:35:00
6:55 AM,32.0,30.2,93,30.31,10.0,Calm,Calm,-,N/A,,Clear,0,2012-11-15 12:55:00
7:15 AM,32.0,30.2,93,30.32,10.0,Calm,Calm,-,N/A,,Clear,0,2012-11-15 13:15:00
7:35 AM,32.0,30.2,93,30.33,10.0,Calm,Calm,-,N/A,,Clear,0,2012-11-15 13:35:00
7:55 AM,33.8,32.0,93,30.33,10.0,Calm,Calm,-,N/A,,Clear,0,2012-11-15 13:55:00
8:15 AM,37.4,32.0,81,30.33,10.0,Calm,Calm,-,N/A,,Clear,0,2012-11-15 14:15:00
8:35 AM,41.0,33.8,76,30.33,10.0,Calm,Calm,-,N/A,,Clear,0,2012-11-15 14:35:00
8:55 AM,41.0,33.8,76,30.32,10.0,Calm,Calm,-,N/A,,Clear,0,2012-11-15 14:55:00
9:15 AM,42.8,33.8,70,30.32,10.0,Calm,Calm,-,N/A,,Clear,0,2012-11-15 15:15:00
9:35 AM,46.4,35.6,66,30.32,10.0,Calm,Calm,-,N/A,,Clear,0,2012-11-15 15:35:00
9:55 AM,46.4,32.0,57,30.32,10.0,Calm,Calm,-,N/A,,Clear,0,2012-11-15 15:55:00
10:15 AM,50.0,33.8,54,30.31,10.0,Calm,Calm,-,N/A,,Clear,0,2012-11-15 16:15:00
10:35 AM,51.8,33.8,50,30.31,10.0,Calm,Calm,-,N/A,,Clear,0,2012-11-15 16:35:00
10:55 AM,53.6,32.0,44,30.30,10.0,North,3.5,-,N/A,,Clear,10,2012-11-15 16:55:00
11:15 AM,53.6,32.0,44,30.30,10.0,Calm,Calm,-,N/A,,Clear,0,2012-11-15 17:15:00
11:35 AM,53.6,32.0,44,30.29,10.0,North,3.5,-,N/A,,Clear,350,2012-11-15 17:35:00
11:55 AM,53.6,32.0,44,30.28,10.0,Calm,Calm,-,N/A,,Clear,0,2012-11-15 17:55:00
12:15 PM,55.4,30.2,38,30.27,10.0,North,3.5,-,N/A,,Clear,350,2012-11-15 18:15:00
12:35 PM,55.4,30.2,38,30.26,10.0,NNW,3.5,-,N/A,,Clear,340,2012-11-15 18:35:00
12:55 PM,55.4,28.4,36,30.26,10.0,NNW,8.1,-,N/A,,Clear,340,2012-11-15 18:55:00
1:15 PM,55.4,28.4,36,30.25,10.0,NW,3.5,-,N/A,,Clear,320,2012-11-15 19:15:00
1:35 PM,55.4,28.4,36,30.25,10.0,NW,6.9,-,N/A,,Clear,320,2012-11-15 19:35:00
1:55 PM,57.2,26.6,31,30.25,10.0,North,6.9,-,N/A,,Clear,360,2012-11-15 19:55:00
2:15 PM,55.4,23.0,29,30.24,10.0,Calm,Calm,-,N/A,,Clear,0,2012-11-15 20:15:00
2:35 PM,57.2,23.0,27,30.24,10.0,North,3.5,-,N/A,,Clear,10,2012-11-15 20:35:00
2:55 PM,57.2,21.2,25,30.24,10.0,North,6.9,-,N/A,,Clear,360,2012-11-15 20:55:00
3:15 PM,57.2,21.2,25,30.24,10.0,NNE,3.5,-,N/A,,Clear,20,2012-11-15 21:15:00
3:35 PM,55.4,26.6,33,30.24,10.0,North,4.6,-,N/A,,Clear,350,2012-11-15 21:35:00
3:55 PM,55.4,28.4,36,30.24,10.0,NNW,6.9,-,N/A,,Clear,340,2012-11-15 21:55:00
4:15 PM,51.8,30.2,44,30.25,10.0,NNW,5.8,-,N/A,,Clear,330,2012-11-15 22:15:00
4:35 PM,50.0,30.2,47,30.24,10.0,NNW,3.5,-,N/A,,Clear,330,2012-11-15 22:35:00
4:55 PM,46.4,32.0,57,30.25,10.0,NNW,4.6,-,N/A,,Clear,330,2012-11-15 22:55:00
5:15 PM,46.4,28.4,50,30.25,10.0,NNW,3.5,-,N/A,,Clear,340,2012-11-15 23:15:00
5:35 PM,44.6,28.4,53,30.25,10.0,NNW,3.5,-,N/A,,Clear,330,2012-11-15 23:35:00
5:55 PM,44.6,28.4,53,30.26,10.0,NNW,3.5,-,N/A,,Clear,330,2012-11-15 23:55:00
6:15 PM,42.8,28.4,57,30.26,10.0,NNW,3.5,-,N/A,,Clear,330,2012-11-16 00:15:00
6:35 PM,42.8,28.4,57,30.27,10.0,Calm,Calm,-,N/A,,Clear,0,2012-11-16 00:35:00
6:55 PM,41.0,28.4,61,30.27,10.0,Calm,Calm,-,N/A,,Clear,0,2012-11-16 00:55:00
7:15 PM,42.8,28.4,57,30.28,10.0,Calm,Calm,-,N/A,,Clear,0,2012-11-16 01:15:00
7:35 PM,42.8,28.4,57,30.29,10.0,Calm,Calm,-,N/A,,Clear,0,2012-11-16 01:35:00
7:55 PM,41.0,28.4,61,30.29,10.0,Calm,Calm,-,N/A,,Clear,0,2012-11-16 01:55:00
8:15 PM,39.2,28.4,65,30.29,10.0,Calm,Calm,-,N/A,,Clear,0,2012-11-16 02:15:00
8:35 PM,39.2,28.4,65,30.29,5.0,Calm,Calm,-,N/A,,Haze,0,2012-11-16 02:35:00
8:55 PM,37.4,30.2,75,30.29,10.0,Calm,Calm,-,N/A,,Clear,0,2012-11-16 02:55:00
9:15 PM,35.6,32.0,87,30.29,10.0,Calm,Calm,-,N/A,,Clear,0,2012-11-16 03:15:00
9:35 PM,37.4,32.0,81,30.29,10.0,Calm,Calm,-,N/A,,Clear,0,2012-11-16 03:35:00
9:55 PM,35.6,30.2,81,30.29,10.0,Calm,Calm,-,N/A,,Clear,0,2012-11-16 03:55:00
10:15 PM,35.6,30.2,81,30.29,10.0,Calm,Calm,-,N/A,,Clear,0,2012-11-16 04:15:00
10:35 PM,35.6,32.0,87,30.29,10.0,Calm,Calm,-,N/A,,Clear,0,2012-11-16 04:35:00
10:55 PM,33.8,32.0,93,30.30,10.0,Calm,Calm,-,N/A,,Clear,0,2012-11-16 04:55:00
11:15 PM,35.6,30.2,81,30.30,10.0,Calm,Calm,-,N/A,,Clear,0,2012-11-16 05:15:00
11:35 PM,33.8,30.2,87,30.29,10.0,Calm,Calm,-,N/A,,Clear,0,2012-11-16 05:35:00
11:55 PM,32.0,30.2,93,30.29,10.0,Calm,Calm,-,N/A,,Clear,0,2012-11-16 05:55:00